Terminal Aerodrome Forecast
Issued by NWS Greer, SC

Home | Current Version | Previous Version | Text Only | Print | Product List | Glossary On
Versions: 1 2 3 4 5 6 7 8 9 10 11 12 13 14 15 16 17 18 19 20 21 22 23 24 25 26 27 28 29 30 31 32 33 34 35 36 37 38 39 40 41 42
000
FTUS42 KGSP 302300
TAFCLT
TAF
KCLT 302338Z 3100/3124 15005KT P6SM SCT250
     FM311000 18003KT 5SM BR SCT030 BKN170
     FM311300 18004KT P6SM FEW030 BKN170
     FM311900 20006KT P6SM SCT250 PROB30 3120/3124 4SM TSRA
      BKN040CB=

USA.gov is the U.S. government's official web portal to all federal, state and local government web resources and services.